Regional Weather Roundup
Issued by NWS Grand Forks, ND

Home | Current Version | Previous Version | Text Only | Print | Product List | Glossary Off
Versions: 1 2 3 4 5 6 7 8 9 10 11 12 13 14 15 16 17 18 19 20 21 22 23 24 25 26 27 28 29 30 31 32 33 34 35 36 37 38 39 40 41 42 43 44 45 46 47 48 49 50

000
ASUS43 KFGF 211931
RWRFGF
PRAIRIE TO PINES  WEATHER ROUNDUP
NATIONAL WEATHER SERVICE EASTERN NORTH DAKOTA/GRAND FORKS ND
200 PM CDT THU SEP 21 2017

 **SATELLITE DATA USED TO AUGMENT SKY COVER AT AUTOMATED STATIONS**
 *****  WEATHER ACROSS EASTERN NORTH DAKOTA  *****

CITY           SKY/WX    TMP DP  RH WIND       PRES   REMARKS
GRAND FORKS    FAIR      77  47  34 S18G28    29.74F
GRAND FRKS AFB FAIR      77  46  33 S18G25    29.74F
DEVILS LAKE    FAIR      76  48  37 S24G33    29.69F
FARGO          FAIR      79  45  29 SE16G25   29.75F
WAHPETON ARPT  FAIR      79  43  27 SE18G24   29.74F
$$

 ***** WEATHER ACROSS CENTRAL AND WESTERN NORTH DAKOTA  *****

CITY           SKY/WX    TMP DP  RH WIND       PRES   REMARKS
BISMARCK       CLOUDY    77  55  46 SW13G22   29.65F
MINOT          FAIR      67  45  45 N6        29.69R
JAMESTOWN      PTSUNNY   79  46  31 S21G29    29.68F
MINOT AFB      PTSUNNY   66  43  44 E6        29.68R
GARRISON         N/A     68  43  40 NE6       29.68S
WILLISTON      CLOUDY    55  49  80 S5        29.75R
DICKINSON      FAIR      68  43  40 N15G21    29.71R
HETTINGER      FAIR      71  38  29 NE15G24   29.70F
$$

 *****  OTHER AIRPORT OBSERVATIONS IN OUR AREA  *****

CITY           SKY/WX    TMP DP  RH WIND       PRES   REMARKS
WALHALLA       FAIR     N/A N/A N/A SE12G18   29.71F
GRAFTON AIRPOR FAIR      77  46  33 S20G28    29.74F
VALLEY CITY AR FAIR      77  48  36 SE18G24   29.72F
CANDO          FAIR      75  48  38 S16G25    29.69F
CAVALIER APRT  FAIR      72  50  46 S15       29.72F
GWINNER        MOCLDY    77  50  38 SE14      29.70F
SHEYENNE NWR     N/A     78  45  30 S16       29.95S
ROLLA          FAIR      63  48  59 E6        29.73F
 ***** THE ABOVE OBSERVATIONS ARE NON NWS ARE NOT QUALITY
       CONTROLLED AND MAY MIS-REPORT RAIN FOR SNOW...
$$

  *****  WEATHER ACROSS NORTHERN MINNESOTA  *****

CITY           SKY/WX    TMP DP  RH WIND       PRES   REMARKS
FLAG ISLAND    FAIR      68  50  52 S13       29.81F
WARROAD        FAIR      75  48  38 SE12      29.81F
ROSEAU         FAIR      77  43  29 S17G23    29.79F
HALLOCK        CLOUDY    79  45  29 S21       29.74F
THF RVR FALLS  FAIR      77  41  27 S15G21    29.79F
BAUDETTE       FAIR      74  43  32 SE16G28   29.85F
WASKISH        PTSUNNY   73  48  40 E13G21    29.84F
CROOKSTON      FAIR      79  45  29 S17       29.76F
$$
  *****  WEATHER ACROSS CENTRAL AND WEST MINNESOTA  *****

CITY           SKY/WX    TMP DP  RH WIND       PRES   REMARKS
FOSSTON        FAIR      75  45  33 SE13G21   29.80F
BEMIDJI        FAIR      71  48  44 SE16G24   29.84F
PARK RAPIDS    FAIR      74  49  41 SE23      29.85F
ELBOW LAKE     FAIR      76  54  46 E17       29.77F
WADENA         FAIR      73  50  43 SE15      29.81F
DETROIT LAKES  FAIR      73  48  40 SE15G21   29.81F
MOORHEAD       FAIR      79  43  27 S14G23    29.75F
FERGUS FALLS   FAIR      79  46  31 SE17G23   29.76F
MORRIS MN      FAIR      81  63  54 SE23      29.74F
STAPLES        NOT AVBL
$$
  *****  WEATHER ELSEWHERE ACROSS MINNESOTA  *****

CITY           SKY/WX    TMP DP  RH WIND       PRES   REMARKS
DULUTH         FAIR      68  55  63 E13       29.95F
INTRNTL FALLS  FAIR      71  49  45 SE10G17   29.90F
ELY            FAIR      70  48  46 SE16      29.96F
CLOQUET        FAIR      70  54  56 E10       29.93F
WHEATON        FAIR      79  54  41 SE10      29.75F
BRAINERD       FAIR      72  49  44 SE9       29.88F
HIBBING        FAIR      69  48  47 SE16G22   29.94F
ALEXANDRIA     FAIR      76  51  41 SE15G25   29.82F
SAINT CLOUD    FAIR      77  59  53 SE14      29.85F
MINNEAPOLIS    FAIR      79  66  64 SE12      29.88F
$$

  *****  WEATHER ACROSS SOUTH DAKOTA  *****

CITY           SKY/WX    TMP DP  RH WIND       PRES   REMARKS
SIOUX FALLS    PTSUNNY   84  74  71 S21G29    29.73F HX  91
BROOKINGS      CLOUDY    80  69  69 S22G31    29.74
WATERTOWN      CLOUDY    79  67  66 S18       29.73F
HURON          FAIR      80  67  64 S17G26    29.68S
SISSETON         N/A     79  54  41 SE14G24   29.73F
ABERDEEN       FAIR      82  59  45 S23G32    29.67F
MITCHELL       FAIR      81  66  60 S15G24    29.70F
PIERRE         FAIR      84  55  36 S21G26    29.61F
MOBRIDGE       FAIR      83  59  44 S17G25    29.60S
RAPID CITY     SUNNY     73  39  29 N13       29.68F
$$

  *****  SOME WEATHER IN NEARBY STATES *****

CITY           SKY/WX    TMP DP  RH WIND       PRES   REMARKS
GLASGOW MT     FAIR      57  33  40 W14G21    29.79R
GREAT FALLS MT FAIR      52  27  38 CALM      29.83S
CHEYENNE WY    FAIR      80  17   9 S17G23    29.81S
SCOTTSBLUFF NE FAIR      80  45  28 E10       29.70F
OMAHA NE       FAIR      90  72  55 SE25      29.79F HX  97
DES MOINES IA  FAIR      85  70  60 S22G31    29.88F
DAVENPORT IA   FAIR      79  64  60 E13       29.97F
CHICAGO IL     PTSUNNY   93  62  35 S9        30.00S HX  93
EAU CLAIRE WI  CLOUDY    76  67  73 E12       29.93F
LA CROSSE WI   SUNNY     84  64  51 S12       29.92F
$$

  *****  SOME NATIONAL WEATHER *****

CITY           SKY/WX    TMP DP  RH WIND       PRES   REMARKS
LA GUARDIA NY  PTSUNNY   79  65  62 NW10      29.98S
RALEIGH NC     FAIR      87  64  46 N5        30.01F THUNDER
ATLANTA GA     FAIR      86  65  49 W3        30.04F
NEW ORLEANS LA FAIR      87  71  58 N5        30.00F HX  93
OKLAHOMA CITY  PTSUNNY   91  71  51 S18G28    29.88F HX  97
ALBUQUERQUE NM FAIR      80  32  17 SW10G21   30.01F
SALT LAKE CITY PTSUNNY   58  42  55 NW13      29.76F
LOS ANGELES CA PTSUNNY   69  58  67 W20       29.86F
BOISE ID       FAIR      53  40  61 NW6       29.83F
SEATTLE WA     PTSUNNY   54  49  83 SW6       29.95S
$$

*** WEATHER ACROSS MANITOBA...SASKATCHEWAN AND ONTARIO ***
                ***ONTARIO***

CITY           SKY/WX    TMP DP  RH WIND       PRES   REMARKS
GERALDTON      MOSUNNY   70  43  37 SE6       30.07S
THUNDER BAY    MOSUNNY   68  55  64 SE12      30.04F
SIOUX LOOKOUT  PTSUNNY   70  45  40 S6        29.95F
TORONTO        MOSUNNY   81  63  54 SE8       30.11S
BIG TROUT LK   MOSUNNY   66  52  59 S7        29.84F
PICKLE LAKE    PTSUNNY   66  45  45 S15       29.97S
DRYDEN         MOSUNNY   70  45  40 SE14      29.92F
KENORA         MOSUNNY   72  43  35 S13G22    29.85F
$$
                *** MANITOBA***

CITY           SKY/WX    TMP DP  RH WIND       PRES   REMARKS
BRANDON        LGT RAIN  54  52  94 E5        29.72S
DAUPHIN        SUNNY     64  45  48 W8        29.69S
ISLAND LAKE    CLOUDY    59  48  67 S13G21    29.71F
PILOT MOUND      N/A     66  48  52 SW5         N/A
THE PAS        MOSUNNY   59  41  51 W9G17     29.63R
THOMPSON       MOSUNNY   59  45  58 SW10      29.58S
WINNIPEG       PTSUNNY   68  50  52 S15       29.76R
LYNN LAKE      LGT RAIN  43  43 100 N9        29.60R FOG
CHURCHILL      PTSUNNY   57  48  72 S8        29.59S
GILLAM         MOSUNNY   64  48  55 S13G22    29.61S
$$
                ***SASKATCHEWAN***

CITY           SKY/WX    TMP DP  RH WIND       PRES   REMARKS
ESTEVAN        PTSUNNY   61  34  36 NW13      29.72R
KINDERSLEY     CLOUDY    45  36  70 W13G21    29.74R
LLOYDMINSTER   LGT RAIN  41  37  87 NW12      29.74R
PRINCE ALBERT  PTSUNNY   50  39  66 W9        29.70R
REGINA         PTSUNNY   55  39  54 NW13      29.75S
YORKTON        SUNNY     61  39  44 SE6       29.71R
N. BATTLEFORD  CLOUDY    46  39  76 N8        29.72R
LA RONGE       DRIZZLE   48  43  81 N9        29.66R
SASKATOON      CLOUDY    46  39  76 SW16      29.73R
SWIFT CURRENT  MOSUNNY   50  32  50 W21G29    29.76S
$$
NOTE: THESE ARE AUTOMATED STATIONS WITH LIMITED QUALITY CONTROL
      "FAIR" INDICATES FEW OR NO CLOUDS BELOW 12,000 FEET WITH NO
      SIGNIFICANT WEATHER AND/OR OBSTRUCTIONS TO VISIBILITY.
      SKY/WX - SKY CONDITION AND SIGNIFICANT WEATHER.
      TMP - AIR TEMPERATURE.    DP   - DEWPOINT TEMPERATURE.
      RH  - RELATIVE HUMIDITY.  PRES - PRESSURE.
      HX  - HEAT INDEX.         WCI  - WIND CHILL INDEX.
$




USA.gov is the U.S. government's official web portal to all federal, state and local government web resources and services.